Visibility
15.0 15.0 15.0 15.0 15.0 15.0 15.0 15.0 15.0 15.0 15.0 15.0 15.0 15.0 15.0 15.0 15.0 15.0 15.0 15.0 15.0 15.0
15.0 15.0 15.0 15.0 15.0 15.0 15.0 15.0 15.0 15.0 15.0 15.0 15.0 15.0 14.8 15.0 15.0 15.0 15.0 15.0 15.0 15.0
15.0 15.0 15.0 15.0 15.0 15.0 15.0 15.0 15.0 15.0 15.0 15.0 15.0 15.0 7.1 8.8 15.0 15.0 15.0 15.0 15.0 15.0
15.0 15.0 15.0 15.0 15.0 15.0 15.0 15.0 15.0 15.0 15.0 15.0 15.0 15.0 15.0 13.4 8.2 9.6 9.0 7.0 6.9 6.5
15.0 15.0 15.0 15.0 15.0 15.0 15.0 15.0 15.0 15.0 15.0 15.0 15.0 15.0 15.0 15.0 15.0 15.0 15.0 15.0 15.0 14.4
15.0 15.0 15.0 15.0 15.0 15.0 15.0 15.0 15.0 15.0 15.0 15.0 15.0 15.0 15.0 15.0 15.0 12.9 15.0 15.0 14.1 15.0
15.0 15.0 15.0 15.0 15.0 15.0 15.0 15.0 15.0 15.0 15.0 15.0 15.0 15.0 15.0 15.0 15.0 15.0 15.0 14.3 3.4 5.5
15.0 15.0 15.0 15.0 15.0 15.0 15.0 15.0 15.0 15.0 15.0 15.0 15.0 15.0 15.0 15.0 15.0 15.0 15.0 15.0 12.9 7.5
15.0 15.0 15.0 15.0 15.0 15.0 15.0 15.0 15.0 15.0 15.0 14.9 15.0 15.0 15.0 15.0 14.9 11.5 2.1 0.0 14.9 15.0
15.0 15.0 15.0 15.0 15.0 10.9 12.9 15.0 15.0 15.0 15.0 14.5 15.0 15.0 15.0 1.9 0.2 0.2 0.1 0.0 0.0 2.1
15.0 15.0 15.0 15.0 15.0 0.1 0.3 0.2 8.8 15.0 15.0 15.0 15.0 15.0 0.0 0.0 0.0 0.0 0.0 0.0 0.0 0.0
15.0 15.0 15.0 15.0 13.8 10.5 5.9 15.0 15.0 15.0 15.0 15.0 15.0 15.0 15.0 1.9 0.0 0.0 0.0 0.0 12.3 6.7
15.0 15.0 13.7 15.0 14.6 7.6 15.0 13.6 15.0 15.0 15.0 15.0 15.0 15.0 15.0 2.7 0.1 0.0 0.0 0.1 15.0 15.0
15.0 15.0 15.0 15.0 15.0 13.9 15.0 13.0 13.0 15.0 15.0 15.0 15.0 15.0 15.0 3.2 0.1 0.0 0.1 8.6 8.3 15.0